FW3318 Weather Reports


time (UTC)temp
F
wind
direction
speed
knots
gust
knots
rain 1hr
in
rain 24hr
in
rain mn
in
humidity
%
barometer
mb
20260507065049 37 211 0.0 1.7 0.00 0.00 0.00 69 1015.5
20260507064549 37 211 0.0 3.5 0.00 0.00 0.00 69 1015.4
20260507064049 37 211 0.9 3.5 0.00 0.00 0.00 69 1015.3
20260507063548 37 197 0.0 0.0 0.00 0.00 0.00 68 1015.4
20260507063056 37 111 0.0 0.0 0.00 0.00 0.00 68 1015.2
20260507062548 38 111 0.0 0.0 0.00 0.00 0.00 67 1015.2
20260507062048 38 111 0.0 0.0 0.00 0.00 0.00 66 1015.2
20260507061549 38 111 0.0 0.0 0.00 0.00 0.00 65 1015.2
20260507061048 38 111 0.0 0.0 0.00 0.00 0.00 65 1015.2
20260507060550 38 111 0.0 0.0 0.00 0.00 0.00 66 1015.2
20260507060047 38 194 0.0 0.0 0.00 0.00 0.00 65 1015.2
20260507055546 39 194 0.0 0.0 0.00 0.00 0.00 65 1015.1
20260507055045 39 194 0.0 0.0 0.00 0.00 0.00 65 1015.0
20260507054548 39 194 0.0 1.7 0.00 0.00 0.00 65 1015.0
20260507054045 39 194 0.0 1.7 0.00 0.00 0.00 66 1015.1
20260507053544 39 167 0.0 0.9 0.00 0.00 0.00 65 1014.7
20260507053044 39 167 0.0 2.6 0.00 0.00 0.00 63 1014.6
20260507052548 39 167 0.9 2.6 0.00 0.00 0.00 63 1014.7
20260507052043 40 223 0.0 0.9 0.00 0.00 0.00 62 1014.7
20260507051543 40 223 0.0 0.9 0.00 0.00 0.00 61 1014.7
20260507051042 40 223 0.0 0.0 0.00 0.00 0.00 59 1014.6
20260507050542 40 223 0.0 0.0 0.00 0.00 0.00 59 1014.6
20260507050042 40 223 0.0 0.0 0.00 0.00 0.00 59 1014.6
20260507045542 40 227 0.0 1.7 0.00 0.00 0.00 57 1014.6
20260507045041 40 227 0.0 2.6 0.00 0.00 0.00 56 1014.6
20260507044543 40 228 0.9 2.6 0.00 0.00 0.00 55 1014.6
20260507044045 40 254 0.0 1.7 0.00 0.00 0.00 59 1014.6
20260507043541 40 254 0.0 1.7 0.00 0.00 0.00 59 1014.6
20260507043041 40 261 0.0 0.9 0.00 0.00 0.00 57 1014.6
20260507042542 41 261 0.0 1.7 0.00 0.00 0.00 57 1014.6
20260507042040 41 261 0.0 1.7 0.00 0.00 0.00 55 1014.6
20260507041540 41 261 0.9 1.7 0.00 0.00 0.00 53 1014.5
20260507041040 41 261 0.0 1.7 0.00 0.00 0.00 54 1014.6
20260507040539 41 261 0.0 6.1 0.00 0.00 0.00 53 1014.6
20260507040039 42 233 1.7 6.1 0.00 0.00 0.00 53 1014.5
20260507035539 42 283 0.9 3.5 0.00 0.00 0.00 53 1014.5
20260507035038 42 284 0.9 2.6 0.00 0.00 0.00 52 1014.5
20260507034540 42 149 0.9 5.2 0.00 0.00 0.00 51 1014.5
20260507034037 42 159 0.0 5.2 0.00 0.00 0.00 50 1014.4
20260507033537 43 180 0.9 6.1 0.00 0.00 0.00 50 1014.4
20260507033037 43 217 1.7 6.1 0.00 0.00 0.00 51 1014.5
20260507032539 43 153 1.7 4.3 0.00 0.00 0.00 50 1014.4
20260507032036 43 213 1.7 5.2 0.00 0.00 0.00 50 1014.4
20260507031537 43 190 0.9 7.0 0.00 0.00 0.00 51 1014.3
20260507031036 43 173 1.7 7.0 0.00 0.00 0.00 48 1014.2
20260507030536 43 202 0.9 7.8 0.00 0.00 0.00 49 1014.2
20260507030035 43 260 0.9 7.8 0.00 0.00 0.00 49 1014.2
20260507025534 43 299 1.7 7.0 0.00 0.00 0.00 49 1014.2
20260507025034 43 280 2.6 7.0 0.00 0.00 0.00 50 1014.2
20260507024537 43 180 0.9 7.0 0.00 0.00 0.00 46 1014.1
20260507024034 43 204 1.7 7.0 0.00 0.00 0.00 48 1014.0
20260507023533 43 257 0.9 7.0 0.00 0.00 0.00 49 1014.0
20260507023035 43 220 1.7 4.3 0.00 0.00 0.00 50 1014.0
20260507022534 43 172 1.7 5.2 0.00 0.00 0.00 48 1014.0
20260507022034 43 163 0.9 4.3 0.00 0.00 0.00 48 1013.9
20260507021533 44 180 1.7 4.3 0.00 0.00 0.00 50 1013.9
20260507021036 44 267 0.9 3.5 0.00 0.00 0.00 49 1013.9
20260507020533 44 239 0.9 4.3 0.00 0.00 0.00 49 1013.9
20260507020041 44 227 1.7 4.3 0.00 0.00 0.00 50 1013.9
20260507015533 44 279 0.9 4.3 0.00 0.00 0.00 50 1013.9
20260507015032 43 244 1.7 6.1 0.00 0.00 0.00 50 1013.9
20260507014531 43 307 0.9 6.1 0.00 0.00 0.00 49 1013.8
20260507014033 43 330 1.7 4.3 0.00 0.00 0.00 48 1013.8
20260507013531 43 267 0.9 4.3 0.00 0.00 0.00 50 1013.9
20260507013046 43 238 1.7 5.2 0.00 0.00 0.00 51 1013.9
20260507012531 44 209 0.9 7.8 0.00 0.00 0.00 51 1013.9
20260507012031 44 214 2.6 10.4 0.00 0.00 0.00 50 1013.8
20260507011533 44 237 1.7 10.4 0.00 0.00 0.00 49 1013.7
20260507011033 44 188 2.6 6.1 0.00 0.00 0.00 49 1013.7
20260507010532 45 226 1.7 5.2 0.00 0.00 0.00 49 1013.7
20260507010036 45 213 1.7 6.1 0.00 0.00 0.00 47 1013.6
20260507005529 44 263 0.9 7.0 0.00 0.00 0.00 50 1013.6
20260507005030 45 211 1.7 7.0 0.00 0.00 0.00 50 1013.6
20260507004529 45 283 1.7 6.1 0.00 0.00 0.00 50 1013.7
20260507004030 44 259 0.9 6.1 0.00 0.00 0.00 49 1013.6
20260507003530 45 232 2.6 5.2 0.00 0.00 0.00 49 1013.6
20260507003028 44 215 0.9 5.2 0.00 0.00 0.00 50 1013.6
20260507002528 44 206 1.7 5.2 0.00 0.00 0.00 48 1013.6
20260507002027 44 235 0.9 7.0 0.00 0.00 0.00 50 1013.6
20260507001531 44 263 1.7 6.1 0.00 0.00 0.00 49 1013.6
20260507001028 44 173 2.6 6.1 0.00 0.00 0.00 50 1013.6
20260507000526 44 232 1.7 4.3 0.00 0.00 0.00 50 1013.7
20260507000026 44 94 1.7 5.2 0.00 0.00 0.00 49 1013.6
20260506235525 45 188 0.9 8.7 0.00 0.00 0.00 49 1013.6
20260506235025 45 271 2.6 8.7 0.00 0.00 0.00 50 1013.6
20260506234534 44 16 0.9 7.0 0.00 0.00 0.00 48 1013.6
20260506234025 45 148 2.6 6.1 0.00 0.00 0.00 46 1013.5
20260506233525 45 153 1.7 7.0 0.00 0.00 0.00 48 1013.5
20260506233036 45 207 0.9 6.1 0.00 0.00 0.00 48 1013.5
20260506232524 46 142 1.7 6.1 0.00 0.00 0.00 46 1013.5
20260506232024 46 237 0.9 6.1 0.00 0.00 0.00 48 1013.5
20260506231528 45 234 2.6 6.1 0.00 0.00 0.00 47 1013.4
20260506231022 45 145 1.7 4.3 0.00 0.00 0.00 49 1013.4
20260506230522 45 233 1.7 7.8 0.00 0.00 0.00 47 1013.5
20260506230026 45 224 2.6 7.8 0.00 0.00 0.00 45 1013.4
20260506225521 45 188 2.6 7.8 0.00 0.00 0.00 44 1013.5
20260506225020 45 198 1.7 6.1 0.00 0.00 0.00 52 1013.4
20260506224521 45 139 1.7 7.0 0.00 0.00 0.00 51 1013.4
20260506224021 45 222 1.7 8.7 0.00 0.00 0.00 52 1013.4
20260506223519 44 167 0.9 8.7 0.00 0.00 0.00 49 1013.5
20260506223018 44 248 2.6 7.0 0.00 0.00 0.00 50 1013.5
20260506222518 44 54 0.9 4.3 0.00 0.00 0.00 52 1013.4
20260506222020 44 226 1.7 5.2 0.00 0.00 0.00 50 1013.4
20260506221517 44 263 1.7 5.2 0.00 0.00 0.00 54 1013.4
20260506221017 44 159 1.7 7.0 0.00 0.00 0.00 52 1013.4
20260506220517 44 141 2.6 7.0 0.00 0.00 0.00 53 1013.4
20260506220023 44 254 1.7 7.0 0.00 0.00 0.00 54 1013.4
20260506215515 44 270 2.6 6.1 0.00 0.00 0.00 58 1013.4
20260506215012 43 179 2.6 7.0 0.00 0.00 0.00 56 1013.5
20260506214513 43 172 2.6 6.1 0.00 0.00 0.00 58 1013.5
20260506214014 43 179 1.7 6.1 0.00 0.00 0.00 59 1013.5
20260506213511 43 157 1.7 5.2 0.00 0.00 0.00 57 1013.4
20260506213010 43 166 2.6 7.0 0.00 0.00 0.00 57 1013.5
20260506212508 42 294 2.6 7.0 0.00 0.00 0.00 58 1013.4
20260506212007 42 238 1.7 4.3 0.00 0.00 0.00 60 1013.4
20260506211511 42 290 1.7 4.3 0.00 0.00 0.00 62 1013.3
20260506211007 42 338 2.6 4.3 0.00 0.00 0.00 60 1013.3
20260506210512 42 355 0.9 6.1 0.00 0.00 0.00 61 1013.3
20260506210011 42 207 1.7 4.3 0.00 0.00 0.00 61 1013.3
20260506205505 42 225 1.7 8.7 0.00 0.00 0.00 61 1013.2
20260506205010 42 184 0.9 8.7 0.00 0.00 0.00 63 1013.3
20260506204505 42 183 1.7 7.8 0.00 0.00 0.00 62 1013.4
20260506204005 41 159 0.9 7.8 0.00 0.00 0.00 62 1013.3
20260506203502 42 137 1.7 5.2 0.00 0.00 0.00 63 1013.4
20260506203002 41 249 0.9 9.6 0.00 0.00 0.00 63 1013.4
20260506202501 41 129 2.6 9.6 0.00 0.00 0.00 61 1013.4
20260506202001 41 279 2.6 7.8 0.00 0.00 0.00 63 1013.3
20260506201603 41 252 2.6 6.1 0.00 0.00 0.00 68 1013.3
20260506201059 40 205 1.7 6.1 0.00 0.00 0.00 66 1013.3
20260506200557 40 177 2.6 7.0 0.00 0.00 0.00 67 1013.3
20260506200056 40 238 1.7 6.1 0.00 0.00 0.00 66 1013.2
20260506195556 40 300 1.7 7.0 0.00 0.00 0.00 66 1013.4
20260506195056 40 151 1.7 7.8 0.00 0.00 0.00 68 1013.3
20260506194555 40 191 2.6 7.8 0.00 0.00 0.00 69 1013.2
20260506194055 39 228 0.9 7.0 0.00 0.00 0.00 70 1013.2
20260506193553 39 210 2.6 6.1 0.00 0.00 0.00 69 1013.1
20260506193052 39 138 1.7 7.0 0.00 0.00 0.00 73 1013.1
20260506192552 39 285 1.7 7.0 0.00 0.00 0.00 74 1013.1
20260506192052 39 207 1.7 7.8 0.00 0.00 0.00 75 1013.1
20260506191550 39 266 2.6 7.8 0.00 0.00 0.00 77 1013.0
20260506191050 38 157 1.7 8.7 0.00 0.00 0.00 76 1013.0
20260506190549 38 198 1.7 7.8 0.00 0.00 0.00 80 1013.0
20260506190046 38 202 2.6 7.0 0.00 0.00 0.00 82 1013.0
20260506185545 37 203 0.9 6.1 0.00 0.00 0.00 82 1013.0
20260506185046 37 203 1.7 6.1 0.00 0.00 0.00 82 1012.8
20260506184544 37 271 0.9 7.0 0.00 0.00 0.00 84 1012.8
20260506184043 36 192 0.9 6.1 0.00 0.00 0.00 86 1012.8
20260506183542 36 221 1.7 6.1 0.00 0.00 0.00 86 1012.7
20260506183041 36 207 2.6 6.1 0.00 0.00 0.00 86 1012.7
20260506182539 36 265 0.9 6.1 0.00 0.00 0.00 88 1012.7
20260506182039 36 178 2.6 6.1 0.00 0.00 0.00 89 1012.8
20260506181538 36 221 1.7 4.3 0.00 0.00 0.00 87 1012.7
20260506181041 36 197 1.7 4.3 0.00 0.00 0.00 87 1012.7
20260506180538 36 186 0.9 4.3 0.00 0.00 0.00 88 1012.7
20260506180040 36 206 0.9 4.3 0.00 0.00 0.00 88 1012.7
20260506175534 36 233 1.7 4.3 0.00 0.00 0.00 89 1012.6
20260506175035 36 201 1.7 4.3 0.00 0.00 0.00 89 1012.5
20260506174533 35 198 0.9 3.5 0.00 0.00 0.00 88 1012.5
20260506174033 35 226 0.9 6.1 0.00 0.00 0.00 88 1012.5
20260506173532 35 179 2.6 6.1 0.00 0.00 0.00 88 1012.5
20260506173038 35 206 0.9 6.1 0.00 0.00 0.00 88 1012.3
20260506172531 35 147 1.7 6.1 0.00 0.00 0.00 88 1012.4
20260506172029 36 180 1.7 7.0 0.00 0.00 0.00 87 1012.3
20260506171529 36 263 1.7 7.0 0.00 0.00 0.00 88 1012.3
20260506171028 35 221 0.9 4.3 0.00 0.00 0.00 88 1012.3
20260506170527 35 226 0.9 4.3 0.00 0.00 0.00 88 1012.2
20260506170030 35 226 1.7 4.3 0.00 0.00 0.00 87 1012.2
20260506165526 35 214 2.6 5.2 0.00 0.00 0.00 87 1012.1
20260506165026 35 209 0.9 9.6 0.00 0.00 0.00 88 1012.1
20260506164525 35 207 2.6 9.6 0.00 0.00 0.00 88 1012.1
20260506164024 35 227 0.9 5.2 0.00 0.00 0.00 89 1012.2
20260506163523 35 208 1.7 5.2 0.00 0.00 0.00 89 1012.1
20260506163024 35 176 1.7 4.3 0.00 0.00 0.00 89 1012.0
20260506162520 35 182 1.7 5.2 0.00 0.00 0.00 89 1012.1
20260506162021 35 157 0.9 5.2 0.00 0.00 0.00 89 1011.9
20260506161520 35 207 0.9 7.0 0.00 0.00 0.00 90 1012.0
20260506161020 35 236 0.9 7.0 0.00 0.00 0.00 90 1011.9
20260506160520 35 211 3.5 7.0 0.00 0.00 0.00 90 1011.8
20260506160019 35 213 0.9 5.2 0.00 0.00 0.00 90 1011.8
20260506155520 35 218 1.7 5.2 0.00 0.00 0.00 89 1011.7
20260506155017 35 220 0.9 3.5 0.00 0.00 0.00 89 1011.7
20260506154519 35 195 0.9 5.2 0.00 0.00 0.00 89 1011.8
20260506154017 35 213 2.6 5.2 0.00 0.00 0.00 89 1011.7
20260506153515 35 205 1.7 4.3 0.00 0.00 0.00 88 1011.8
20260506153014 35 191 0.9 5.2 0.00 0.00 0.00 88 1011.6
20260506152513 35 229 1.7 4.3 0.00 0.00 0.00 88 1011.6
20260506152013 35 193 0.9 4.3 0.00 0.00 0.00 88 1011.5
20260506151513 35 169 0.9 4.3 0.00 0.00 0.00 88 1011.4
20260506151012 35 206 1.7 5.2 0.00 0.00 0.00 88 1011.4
20260506150511 35 165 0.0 5.2 0.00 0.00 0.00 88 1011.3
20260506150011 35 286 1.7 5.2 0.00 0.00 0.00 88 1011.3
20260506145513 35 209 1.7 5.2 0.00 0.00 0.00 88 1011.3
20260506145008 35 212 1.7 5.2 0.00 0.00 0.00 89 1011.2
20260506144508 35 202 0.9 4.3 0.00 0.00 0.00 89 1011.1
20260506144007 35 202 0.9 4.3 0.00 0.00 0.00 89 1011.2
20260506143506 35 213 0.9 7.0 0.00 0.00 0.00 89 1011.0
20260506143007 35 188 0.9 7.0 0.00 0.00 0.00 89 1011.0
20260506142505 35 240 1.7 6.1 0.00 0.00 0.00 89 1010.8
20260506142004 35 218 0.9 6.1 0.00 0.00 0.00 89 1010.8
20260506141503 35 226 0.9 6.1 0.00 0.00 0.00 89 1010.7
20260506141002 35 210 1.7 8.7 0.00 0.00 0.00 89 1010.7
20260506140502 35 238 0.9 5.2 0.00 0.00 0.00 90 1010.7
20260506140100 35 148 0.9 5.2 0.00 0.00 0.00 90 1010.7
20260506135601 35 237 0.9 5.2 0.00 0.00 0.00 90 1010.7
20260506135058 36 184 0.9 3.5 0.00 0.00 0.00 90 1010.6
20260506134559 36 144 0.0 2.6 0.00 0.00 0.00 90 1010.7
20260506134057 36 183 0.9 6.1 0.00 0.00 0.00 90 1010.6
20260506133559 36 200 3.5 6.1 0.00 0.00 0.00 91 1010.5
20260506133104 36 212 0.0 5.2 0.00 0.00 0.00 91 1010.5
20260506132555 36 181 2.6 5.2 0.00 0.00 0.00 91 1010.4
20260506132054 36 198 0.9 4.3 0.00 0.00 0.00 91 1010.3
20260506131555 36 202 0.9 4.3 0.00 0.00 0.00 91 1010.3
20260506131051 36 178 0.9 4.3 0.00 0.00 0.00 91 1010.3
20260506130551 36 209 1.7 4.3 0.00 0.00 0.00 91 1010.3
20260506130049 36 192 0.9 3.5 0.00 0.00 0.00 91 1010.3
20260506125548 36 219 0.0 4.3 0.00 0.00 0.00 91 1010.2
20260506125047 36 223 0.9 4.3 0.00 0.00 0.00 91 1010.2
20260506124546 37 215 0.9 3.5 0.00 0.00 0.00 91 1010.0
20260506124045 37 206 0.9 3.5 0.00 0.00 0.00 91 1009.9
20260506123544 37 211 0.9 2.6 0.00 0.00 0.00 92 1009.9
20260506123046 37 200 0.0 3.5 0.00 0.00 0.00 92 1009.8
20260506122542 37 173 0.9 3.5 0.00 0.00 0.00 92 1009.7
20260506122043 37 248 0.0 2.6 0.00 0.00 0.00 92 1009.6
20260506121546 37 175 0.0 4.3 0.00 0.00 0.00 92 1009.6
20260506121039 37 258 0.9 4.3 0.00 0.00 0.00 92 1009.6
20260506120539 37 178 0.0 2.6 0.00 0.00 0.00 92 1009.4
20260506120105 37 190 0.0 2.6 0.00 0.00 0.00 92 1009.4
20260506115538 37 190 0.0 2.6 0.00 0.00 0.00 92 1009.3
20260506115038 37 184 0.0 2.6 0.00 0.00 0.00 92 1009.2
20260506114537 37 232 0.0 3.5 0.00 0.00 0.00 92 1009.2
20260506114036 38 218 0.9 3.5 0.00 0.00 0.00 92 1009.2
20260506113536 38 184 0.0 3.5 0.00 0.00 0.00 92 1009.2
20260506113036 38 133 0.9 4.3 0.00 0.00 0.00 92 1009.2
20260506112535 38 153 0.0 2.6 0.00 0.00 0.00 92 1009.1
20260506112034 38 252 0.0 2.6 0.00 0.00 0.00 91 1009.1
20260506111533 38 208 0.0 2.6 0.00 0.00 0.00 91 1008.9
20260506111035 38 206 0.9 2.6 0.00 0.00 0.00 92 1008.9
20260506110532 38 184 0.0 3.5 0.00 0.00 0.00 92 1008.9
20260506110031 38 184 1.7 3.5 0.00 0.00 0.00 92 1008.8
20260506105531 38 236 1.7 3.5 0.00 0.00 0.00 92 1008.7
20260506105028 38 207 0.0 5.2 0.00 0.00 0.00 92 1008.6
20260506104529 38 216 0.9 5.2 0.00 0.00 0.00 92 1008.6
20260506104026 38 195 0.9 4.3 0.00 0.00 0.00 92 1008.5
20260506103526 38 146 0.0 2.6 0.00 0.00 0.00 92 1008.5
20260506103029 38 181 0.9 2.6 0.00 0.00 0.00 92 1008.4
20260506102525 37 163 0.0 2.6 0.00 0.00 0.00 92 1008.4
20260506102024 37 178 0.0 2.6 0.00 0.00 0.00 91 1008.4
20260506101525 37 189 0.9 2.6 0.00 0.00 0.00 91 1008.4
20260506101023 37 153 0.0 2.6 0.00 0.00 0.00 91 1008.2
20260506100521 37 219 0.0 2.6 0.00 0.00 0.00 90 1008.2
20260506100022 38 184 0.9 2.6 0.00 0.00 0.00 90 1008.1
20260506095519 38 195 0.0 1.7 0.00 0.00 0.00 90 1008.0
20260506095018 38 195 0.0 1.7 0.00 0.00 0.00 90 1008.1
20260506094528 38 195 0.0 2.6 0.00 0.00 0.00 90 1007.9
20260506094015 38 158 0.0 2.6 0.00 0.00 0.00 90 1007.8
20260506093516 38 165 0.0 1.7 0.00 0.00 0.00 90 1007.7
20260506093023 38 163 0.0 0.0 0.00 0.00 0.00 90 1007.7
20260506092514 38 163 0.0 0.0 0.00 0.00 0.00 90 1007.6
20260506092014 38 163 0.0 0.0 0.00 0.00 0.00 90 1007.6
20260506091512 39 164 0.0 0.9 0.00 0.00 0.00 89 1007.5
20260506091012 39 163 0.0 2.6 0.00 0.00 0.00 89 1007.5
20260506090512 39 165 0.0 3.5 0.00 0.00 0.00 89 1007.4
20260506090009 39 149 0.0 1.7 0.00 0.00 0.00 88 1007.4
20260506085508 39 149 0.0 1.7 0.00 0.00 0.00 88 1007.3
20260506085007 39 149 0.0 0.9 0.00 0.00 0.00 88 1007.3
20260506084507 39 149 0.0 1.7 0.00 0.00 0.00 88 1007.2
20260506084006 40 195 0.0 0.0 0.00 0.00 0.00 88 1007.2
20260506083506 40 196 0.0 0.0 0.00 0.00 0.00 88 1007.2
20260506083004 40 195 0.0 0.9 0.00 0.00 0.00 87 1007.1
20260506082505 40 195 0.0 1.7 0.00 0.00 0.00 87 1007.0
20260506082003 40 195 0.9 1.7 0.00 0.00 0.00 87 1006.9
20260506081501 40 153 0.0 1.7 0.00 0.00 0.00 87 1006.7
20260506081100 40 153 0.0 0.9 0.00 0.00 0.00 86 1006.6
20260506080601 41 150 0.0 0.9 0.00 0.00 0.00 86 1006.6
20260506073100 41 248 0.9 3.5 0.00 0.00 0.00 84 1006.3
20260506072557 41 199 0.9 3.5 0.00 0.00 0.00 84 1006.3
20260506072054 42 298 0.9 7.8 0.00 0.00 0.00 84 1006.1
20260506071555 41 292 1.7 7.8 0.00 0.00 0.00 84 1006.1
20260506071053 41 241 0.9 3.5 0.00 0.00 0.00 84 1006.0
20260506070553 42 259 0.9 3.5 0.00 0.00 0.00 84 1006.1
20260506070114 42 227 0.9 4.3 0.00 0.00 0.00 84 1006.1